TimeCDT,TemperatureF,Dew PointF,Humidity,Sea Level PressureIn,VisibilityMPH,Wind Direction,Wind SpeedMPH,Gust SpeedMPH,PrecipitationIn,Events,Conditions,WindDirDegrees,DateUTC
12:53 AM,50.0,21.0,32,30.08,10.0,South,11.5,-,N/A,,Clear,170,2013-03-27 05:53:00
1:53 AM,50.0,21.9,33,30.05,10.0,South,12.7,-,N/A,,Clear,180,2013-03-27 06:53:00
2:53 AM,48.9,23.0,36,30.05,10.0,South,11.5,-,N/A,,Clear,180,2013-03-27 07:53:00
3:53 AM,46.9,25.0,42,30.03,10.0,South,8.1,-,N/A,,Clear,170,2013-03-27 08:53:00
4:53 AM,46.9,28.9,50,30.00,10.0,South,10.4,-,N/A,,Clear,170,2013-03-27 09:53:00
5:53 AM,46.9,30.0,52,30.00,10.0,South,13.8,-,N/A,,Clear,180,2013-03-27 10:53:00
6:53 AM,46.0,30.9,56,30.02,10.0,South,10.4,-,N/A,,Clear,170,2013-03-27 11:53:00
7:53 AM,45.0,33.1,63,30.04,10.0,South,13.8,-,N/A,,Clear,170,2013-03-27 12:53:00
8:53 AM,48.0,34.0,58,30.05,10.0,South,17.3,24.2,N/A,,Clear,170,2013-03-27 13:53:00
9:53 AM,52.0,35.1,53,30.06,10.0,South,17.3,-,N/A,,Clear,180,2013-03-27 14:53:00
10:53 AM,57.9,34.0,41,30.05,10.0,South,16.1,-,N/A,,Clear,180,2013-03-27 15:53:00
11:53 AM,62.1,34.0,35,30.04,10.0,South,13.8,-,N/A,,Clear,180,2013-03-27 16:53:00
12:53 PM,68.0,34.0,28,30.02,10.0,South,16.1,21.9,N/A,,Clear,170,2013-03-27 17:53:00
1:53 PM,72.0,33.1,24,29.99,10.0,South,12.7,20.7,N/A,,Clear,180,2013-03-27 18:53:00
2:53 PM,75.0,32.0,21,29.96,10.0,South,18.4,21.9,N/A,,Clear,170,2013-03-27 19:53:00
3:53 PM,75.9,30.9,19,29.93,10.0,South,15.0,24.2,N/A,,Clear,170,2013-03-27 20:53:00
4:53 PM,77.0,30.9,19,29.91,10.0,South,18.4,-,N/A,,Clear,180,2013-03-27 21:53:00
5:53 PM,75.0,32.0,21,29.91,10.0,South,19.6,24.2,N/A,,Clear,180,2013-03-27 22:53:00
6:53 PM,73.9,34.0,23,29.91,10.0,South,18.4,-,N/A,,Clear,170,2013-03-27 23:53:00
7:53 PM,71.1,36.0,28,29.92,10.0,South,19.6,25.3,N/A,,Clear,170,2013-03-28 00:53:00
8:53 PM,66.0,37.9,36,29.94,10.0,South,13.8,-,N/A,,Clear,170,2013-03-28 01:53:00
9:53 PM,63.0,39.9,43,29.96,10.0,South,18.4,-,N/A,,Clear,170,2013-03-28 02:53:00
10:53 PM,60.1,42.1,51,29.98,10.0,South,20.7,26.5,N/A,,Clear,180,2013-03-28 03:53:00
11:53 PM,57.9,44.1,60,29.99,10.0,South,16.1,-,N/A,,Clear,180,2013-03-28 04:53:00